Location: *
(43.7000°S, 168.7000°W)
Time: 14:43:28
(UTC+00:00)

COSMO-SKYMED 1 - Pass Details

Date: 07 July 2020
Orbit: 621 x 623 km, 97.9° (Epoch: 04 August)

Event Time Altitude Azimuth Distance (km) Brightness Sun altitude
Rises 17:14:10 0° 165° (SSE) 2,947 6.0 -16.3°
Reaches altitude 10° 17:16:23 10° 163° (SSE) 2,032 5.2 -15.9°
Maximum altitude 17:20:49 71° 79° (ENE) 674 2.9 -15.2°
Drops below altitude 10° 17:25:10 10° 354° (N) 2,004 5.3 -14.4°
Sets 17:27:21 0° 351° (N) 2,902 6.1 -14.0°
